Regional Weather Roundup
Issued by NWS Upton, NY

Current Version | Previous Version | Graphics & Text | Print | Product List | Glossary Off
Versions: 1 2 3 4 5 6 7 8 9 10 11 12 13 14 15 16 17 18 19 20 21 22 23 24 25 26 27 28 29 30 31 32 33 34 35 36 37 38 39 40 41 42 43 44 45 46 47 48 49 50

000
ASUS41 KOKX 250008
RWROKX

REGIONAL WEATHER ROUNDUP
NATIONAL WEATHER SERVICE NEW YORK NY
800 PM EDT SAT SEP 24 2016

NOTE: "FAIR" INDICATES FEW OR NO CLOUDS BELOW 12,000 FEET WITH NO
SIGNIFICANT WEATHER AND/OR OBSTRUCTIONS TO VISIBILITY.

NYZ071-072-176-178-NJZ106-104-250100-
NEW YORK CITY METRO AREA

CITY           SKY/WX    TMP DP  RH WIND       PRES   REMARKS
Central Park   CLEAR     63  45  51 CALM      30.13R
LaGuardia APRT PTCLDY    68  44  42 NE10      30.10R
Kennedy INTL   PTCLDY    64  44  48 NE3       30.11R
Newark/Liberty PTCLDY    66  45  46 NE9       30.11R
Bronx Bot Gard   N/A     63  41  45 E3        30.12R
Wall St Helipt CLEAR     70  50  49 E5        30.11R
Teterboro      PTCLDY    66  43  43 N3        30.10R
$$

NYZ177-179-078>081-250100-
LONG ISLAND NEW YORK

CITY           SKY/WX    TMP DP  RH WIND       PRES   REMARKS
Farmingdale    CLEAR     62  44  51 N5        30.11R
MacArthur/ISP  PTCLDY    59  47  64 N5        30.10S
Shirley        PTCLDY    54  49  83 CALM      30.11R
Riverhead      NOT AVBL
Westhampton    MOCLDY    54  48  80 CALM      30.12R
Southampton      N/A     55  50  82 CALM      30.07R
Bridgehampton    N/A     54  48  82 CALM      29.95S
East Hampton   FAIR      49  46  90 CALM      30.09S
Montauk          N/A     64  43  46 VRB5      30.11R
$$

NYZ052-065-067-250100-
HUDSON VALLEY

CITY           SKY/WX    TMP DP  RH WIND       PRES   REMARKS
White Plains   CLEAR     57  46  66 CALM      30.12R
Newburgh       CLEAR     57  46  67 CALM      30.14R
Montgomery     PTCLDY    56  44  64 NW3       30.13R
Poughkeepsie   CLEAR     55  45  68 CALM      30.12R
Albany         PTCLDY    53  43  68 NW5       30.14R
$$

NJZ001-105-106-008-010-013-015-019>022-104-250100-
NEW JERSEY

CITY           SKY/WX    TMP DP  RH WIND       PRES   REMARKS
Newark/Liberty PTCLDY    66  45  46 NE9       30.11R
Teterboro      PTCLDY    66  43  43 N3        30.10R
Caldwell       CLEAR     62  49  62 CALM      30.12R
Morristown     PTCLDY    61  46  59 N3        30.12R
Somerville     CLEAR     63  44  50 N3        30.10R
Linden         NOT AVBL
Sussex         CLEAR     61  43  51 NW6       30.14R
Abdover          N/A     52  48  86 CALM      30.14R
Trenton        CLEAR     62  48  60 N6        30.11R
Millville      CLEAR     57  57 100 CALM      30.12R
Atlantic City  CLEAR     59  55  87 CALM      30.11S
Wrightstown    CLEAR     60  55  86 SE5       30.09R
Toms River     CLEAR     57  54  89 CALM      30.12R
Belmar         PTCLDY    59  53  80 CALM      30.12R
$$

PAZ047>061-062-071-250100-
EASTERN PENNSYLVANIA

CITY           SKY/WX    TMP DP  RH WIND       PRES   REMARKS
Philadelphia   PTCLDY    67  55  65 S7        30.11R
Allentown      CLEAR     61  44  53 N5        30.13R
Scranton       CLEAR     59  44  57 N6        30.16R
$$

CTZ002-004>006-009-010-012-RIZ004-006-007-MAZ004-011-015-250100-
SOUTHERN NEW ENGLAND
 IN CT

CITY           SKY/WX    TMP DP  RH WIND       PRES   REMARKS
Bradley INTL   PTCLDY    53  43  68 NW6       30.12R
Hartford       CLEAR     61  39  44 N6        30.11R
Danbury        CLEAR     53  43  68 SW3       30.13R
Wtrbury/Oxford PTCLDY    54  39  58 N3        30.13R
Bridgeport     PTCLDY    65  41  41 N10       30.11R
Meriden        CLEAR     56  44  64 CALM      30.12R
New Haven      CLEAR     60  40  47 N3        30.11R
Chester        FAIR      55  45  67 CALM      30.12R
Groton         PTCLDY    57  47  69 N5        30.10R
Wilimantic     CLEAR     54  47  77 N3        30.12R

 IN RI

CITY           SKY/WX    TMP DP  RH WIND       PRES   REMARKS
Providence     PTCLDY    60  40  47 NW8       30.10R
Block Island   CLEAR     61  42  49 N6        30.10R
Westerly       PTCLDY    54  46  74 CALM      30.11R
 IN MA

CITY           SKY/WX    TMP DP  RH WIND       PRES   REMARKS
Boston         PTCLDY    61  37  41 NW13      30.09R
Worcester      CLEAR     55  34  45 NW10      30.12R
Westfield      CLEAR     52  45  77 CALM      30.12R
Provincetown   CLEAR     47  41  80 SW3       30.09R
Nantucket      CLEAR     53  41  63 CALM      30.08R
$$

ANZ330-335-338-340-345-350-353-355-250100-
COASTAL MARINE OBSERVATIONS


STATION/POSITION TIME  SKY/WX   TEMP    WIND        PRES    VSBY  WAVE
                                AIR SEA DIR/SP/G                  HT/PER
                 (UTC)          (F)     (DEG/KT/KT) (MB)    (MI)  (FT/S)
NY HARB ENTRANCE 2350            66 72  150/  2/  4 1019.2          4/ 6
20S FIRE ISLAND  2350            66 71   70/  6/  8 1019.0          4/11
GREAT SOUTH BAY  2315            66 73  340/  6/  6   N/A
23 SSW MONTAUK P 2350            66 68  350/ 12/ 14 1019.2          4/11
15 E BARNEGAT LI 2330               71                N/A           5/11
HUDSON CANYON    2250            64 70              1018.6          6/10
KINGS POINT      2330            66 74              1019.1
EXECUTION ROCKS  2345            68      20/ 10/ 12   N/A
CENTRAL LI SOUND 2315            67 73   10/ 10/ 12   N/A           1/ 2
EASTERN LI SOUND NOT AVBL
ROBBINS REEF     2330            69     360/  7/  9 1019.4
$$


>>>>>>>>>>>>>>>>>>>>>>>>>>>> KEY <<<<<<<<<<<<<<<<<<<<<<<<<<<
>                                                          <
>     SKY/WX - Sky Condition/Present Weather               <
>     TMP    - Temperature in Fahrenheit                   <
>     DP     - Dew Point in Fahrenheit                     <
>     RH     - Relative Humidity in Percent                <
>     WIND   - Direction (from) and Speed in MPH           <
>     PRES   - Mean Sea Level Pressure (inches of Hg)      <
>     WCI    - Wind Chill Index                            <
>     VSB    - VISIBILITY IN MILES                         <
>     HX     - HEAT INDEX                                  <
>     TC     - TEMPERATURE IN CELSIUS                      <
>     VRB    - VARIABLE WIND DIRECTION                     <
>                                                          <
>>>>>>>>>>>>>>>>>>>>>>>>>>>> KEY <<<<<<<<<<<<<<<<<<<<<<<<<<<



USA.gov is the U.S. government's official web portal to all federal, state and local government web resources and services.